Home > Weather > Port Elizabeth > Past weeks

Flag for South Africa Weather for the Past 2 Weeks in Port Elizabeth, South Africa

Now
72 °F

Sunny.


Feels Like: 75 °F
Forecast: 64 / 78 °F
Wind: 23 mph from East

Location: Port Elizabeth Airport

Current Time: Feb 6, 2016 at 6:52:00 PM

Latest Report: Feb 6, 2016 at 6:00 PM


Visibility: 10 mi

Pressure: 29.83 "Hg

Humidity: 69%

Dew point: 61 °F

Location of Port ElizabethLocation

Historic Weather in Port Elizabeth — Graph

°F

Port Elizabeth Temperature Yesterday

Maximum temperature yesterday: 75 °F (at 12:00 PM)
Minimum temperature yesterday: 55 °F (at 5:00 AM)
Average temperature yesterday: 66 °F

High & Low Weather Summary for the Past Weeks

 TemperatureHumidityPressure
High86 °F (Jan 31, 1:00 PM)94% (Jan 22, 10:00 PM)30.18 "Hg (Jan 22, 10:00 PM)
Low55 °F (Feb 5, 5:00 AM)47% (Jan 27, 2:00 PM)29.65 "Hg (Feb 1, 4:00 PM)
Average72 °F77%29.95 "Hg
* Reported Jan 22 5:00 PM — Feb 6 5:59 PM, Port Elizabeth, Weather by CustomWeather, © 2016

Note: Actual official high and low records may vary slightly from our data, if they occured in-between our weather recording intervals... More about our weather records

Advertising

Port Elizabeth Weather History for the Previous 24 Hours

 ConditionsComfort  
Time TempWeatherWind HumidityBarometerVisibility
5:59 PM
Sat, Feb 6
72 °FSunny.23 mph69%29.83 "Hg10 mi
5:00 PM73 °FSunny.30 mph69%29.83 "Hg10 mi
4:00 PM75 °FSunny.30 mph65%29.83 "Hg10 mi
3:00 PM77 °FSunny.30 mph61%29.86 "Hg10 mi
2:00 PM77 °FSunny.30 mph57%29.86 "Hg10 mi
1:00 PM77 °FSunny.30 mph57%29.89 "Hg10 mi
12:00 PM75 °FSunny.26 mph61%29.92 "Hg10 mi
11:00 AM75 °FSunny.22 mph57%29.92 "Hg10 mi
10:00 AM72 °FSunny.21 mph65%29.95 "Hg10 mi
9:00 AM70 °FSunny.16 mph64%29.95 "Hg10 mi
8:00 AM68 °FSunny.15 mph69%29.98 "Hg10 mi
7:00 AM68 °FSunny.15 mph73%29.98 "Hg10 mi
6:00 AM64 °FSunny.14 mph83%29.98 "Hg10 mi
5:00 AM64 °FSunny.13 mph83%29.98 "Hg10 mi
4:00 AM64 °FClear.16 mph83%29.98 "Hg10 mi
3:00 AM66 °FClear.16 mph73%30.01 "Hg10 mi
2:00 AM66 °FClear.18 mph73%30.01 "Hg10 mi
1:00 AM66 °FClear.15 mph73%30.04 "Hg10 mi
12:00 AM66 °FClear.16 mph78%30.04 "Hg10 mi
11:00 PM
Fri, Feb 5
66 °FClear.14 mph78%30.07 "Hg10 mi
10:00 PM66 °FClear.17 mph78%30.07 "Hg10 mi
9:00 PM66 °FClear.17 mph73%30.07 "Hg10 mi
8:00 PM66 °FClear.16 mph73%30.07 "Hg10 mi
7:00 PM68 °FClear.18 mph69%30.04 "Hg10 mi
6:00 PM70 °FSunny.20 mph64%30.04 "Hg10 mi
Weather by CustomWeather, © 2016

See weather overviewHow to use our weather pages